Вернуться в каталог

VSP RF C1

АктивенНаукаSSO
NORAD 59136·PAYLOAD·🇧🇪 Belgium

Запущен Mar 4, 2024 с Vandenberg Space Force Base

Loading…

Ближайшие Пролёты (ближайшие 24 часа)

TLE

СвежийSource: Space-Track

Эпоха: Sep 14, 2026, 14:24 UTC

1 59136U 24043AQ  26257.60025517  .00003418  00000-0  12902-3 0  9998
2 59136  97.5743  36.9690 0001132  89.6334 270.5035 15.27730721140747

Отслеживайте VSP RF C1 в реальном времени с AllMySat

Download on the App Store